Estación de San Julian
Ultimos registro cada 15 minutos 55
| N° | Estación | Fecha / Hora | Temperatura | Humedad | Lluvia | Velocidad | Dirección | Radiación | Presion |
| 55 | San Julian | 04-05-2026 13:30 | 28,6 | 22,4 | 0 | 0 | 267 | 544,4 | 982,2 |
| 54 | San Julian | 04-05-2026 13:15 | 27,6 | 24,4 | 0 | 0 | 236 | 551,9 | 982,6 |
| 53 | San Julian | 04-05-2026 13:00 | 27,1 | 25,6 | 0 | 0 | 227 | 555,6 | 982,9 |
| 52 | San Julian | 04-05-2026 12:45 | 26,6 | 26,5 | 0 | 0 | 243 | 555,6 | 983,2 |
| 51 | San Julian | 04-05-2026 12:30 | 26,5 | 27,4 | 0 | 0 | 241 | 555,6 | 983,2 |
| 50 | San Julian | 04-05-2026 12:15 | 25,1 | 26,7 | 0 | 0 | 267 | 549,4 | 983,4 |
| 49 | San Julian | 04-05-2026 12:00 | 24,5 | 32,9 | 0 | 0 | 258 | 539,4 | 983,8 |
| 48 | San Julian | 04-05-2026 11:45 | 23,5 | 34,3 | 0 | 0 | 340 | 525,6 | 984 |
| 47 | San Julian | 04-05-2026 11:30 | 23,1 | 38,5 | 0 | 0 | 21 | 508,1 | 984,1 |
| 46 | San Julian | 04-05-2026 11:15 | 21,6 | 43,6 | 0 | 0 | 34 | 488,1 | 984,2 |
| 45 | San Julian | 04-05-2026 11:00 | 19,9 | 46,6 | 0 | 0 | 39 | 466,9 | 984,3 |
| 44 | San Julian | 04-05-2026 10:45 | 19,5 | 49,1 | 0 | 0 | 41 | 441,9 | 984,4 |
| 43 | San Julian | 04-05-2026 10:30 | 17,5 | 55,5 | 0 | 0 | 41 | 414,4 | 984,5 |
| 42 | San Julian | 04-05-2026 10:15 | 17,1 | 56,5 | 0 | 0 | 42 | 385,6 | 984,5 |
| 41 | San Julian | 04-05-2026 10:00 | 17,1 | 54,5 | 0 | 0 | 45 | 354,4 | 984,8 |
| 40 | San Julian | 04-05-2026 09:45 | 15,7 | 50,8 | 0 | 0 | 58 | 323,1 | 984,8 |
| 39 | San Julian | 04-05-2026 09:30 | 15,7 | 50,1 | 0 | 0 | 63 | 289,4 | 984,6 |
| 38 | San Julian | 04-05-2026 09:15 | 15,5 | 50 | 0 | 0 | 69 | 254,4 | 984,8 |
| 37 | San Julian | 04-05-2026 09:00 | 15,6 | 50,2 | 0 | 0 | 69 | 219,4 | 984,8 |
| 36 | San Julian | 04-05-2026 08:45 | 14,1 | 52,9 | 0 | 0 | 69 | 124,4 | 984,9 |
| 35 | San Julian | 04-05-2026 08:30 | 14,5 | 52,4 | 0 | 0 | 69 | 149,4 | 984,9 |
| 34 | San Julian | 04-05-2026 08:15 | 13,8 | 54 | 0 | 0 | 69 | 86,9 | 984,7 |
| 33 | San Julian | 04-05-2026 08:00 | 13 | 54,8 | 0 | 0 | 69 | 81,9 | 984,5 |
| 32 | San Julian | 04-05-2026 07:45 | 12,4 | 57,9 | 0 | 0 | 69 | 38,1 | 984,6 |
| 31 | San Julian | 04-05-2026 07:30 | 11,6 | 60,1 | 0 | 0 | 69 | 5,6 | 984,5 |
| 30 | San Julian | 04-05-2026 07:15 | 11,6 | 61,1 | 0 | 0 | 72 | 0,6 | 984,3 |
| 29 | San Julian | 04-05-2026 07:00 | 10,8 | 62,9 | 0 | 0 | 77 | 0,6 | 984,4 |
| 28 | San Julian | 04-05-2026 06:45 | 10,1 | 64,6 | 0 | 0 | 77 | 0,6 | 984,4 |
| 27 | San Julian | 04-05-2026 06:30 | 10,4 | 65,6 | 0 | 0 | 77 | 0,6 | 984,3 |
| 26 | San Julian | 04-05-2026 06:15 | 10 | 64,6 | 0 | 0 | 77 | 0,6 | 984,2 |
| 25 | San Julian | 04-05-2026 06:00 | 8,8 | 67,8 | 0 | 0 | 77 | 0,6 | 983,9 |
| 24 | San Julian | 04-05-2026 05:45 | 9,7 | 65,1 | 0 | 0 | 77 | 0,6 | 983,9 |
| 23 | San Julian | 04-05-2026 05:30 | 7,9 | 69,5 | 0 | 0 | 77 | 0,6 | 983,8 |
| 22 | San Julian | 04-05-2026 05:15 | 8 | 67,5 | 0 | 0 | 77 | 0,6 | 983,9 |
| 21 | San Julian | 04-05-2026 05:00 | 9,1 | 63,8 | 0 | 0 | 77 | 0,6 | 983,6 |
| 20 | San Julian | 04-05-2026 04:45 | 8,8 | 63,9 | 0 | 0 | 77 | 0,6 | 983,6 |
| 19 | San Julian | 04-05-2026 04:30 | 9,1 | 63,9 | 0 | 0 | 77 | 0,6 | 983,7 |
| 18 | San Julian | 04-05-2026 04:15 | 10,1 | 62,3 | 0 | 0 | 77 | 0,6 | 983,7 |
| 17 | San Julian | 04-05-2026 04:00 | 11,5 | 56,9 | 0 | 0 | 77 | 0,6 | 983,5 |
| 16 | San Julian | 04-05-2026 03:45 | 11 | 57,8 | 0 | 0 | 77 | 0,6 | 983,4 |
| 15 | San Julian | 04-05-2026 03:30 | 11,4 | 55,7 | 0 | 0 | 76 | 0,6 | 983,4 |
| 14 | San Julian | 04-05-2026 03:15 | 12,2 | 54,3 | 0 | 0 | 72 | 0,6 | 983,3 |
| 13 | San Julian | 04-05-2026 03:00 | 13,2 | 52,4 | 0 | 0 | 69 | 0,6 | 983,5 |
| 12 | San Julian | 04-05-2026 02:45 | 13,4 | 52,7 | 0 | 0 | 67 | 0,6 | 983,4 |
| 11 | San Julian | 04-05-2026 02:30 | 14 | 49,6 | 0 | 0 | 59 | 0,6 | 983,5 |
| 10 | San Julian | 04-05-2026 02:15 | 14,5 | 49,4 | 0 | 0 | 34 | 0,6 | 983,6 |
| 9 | San Julian | 04-05-2026 02:00 | 15,1 | 46,6 | 0 | 0 | 28 | 0,6 | 983,6 |
| 8 | San Julian | 04-05-2026 01:45 | 15,1 | 46,8 | 0 | 0 | 35 | 0,6 | 983,8 |
| 7 | San Julian | 04-05-2026 01:30 | 15,4 | 46,8 | 0 | 0 | 51 | 0,6 | 983,8 |
| 6 | San Julian | 04-05-2026 01:15 | 15,2 | 47,4 | 0 | 0 | 63 | 0,6 | 983,8 |
| 5 | San Julian | 04-05-2026 01:00 | 14,7 | 48,7 | 0 | 0 | 62 | 0,6 | 983,9 |
| 4 | San Julian | 04-05-2026 00:45 | 13,4 | 50,2 | 0 | 0 | 80 | 0,6 | 984 |
| 3 | San Julian | 04-05-2026 00:30 | 12,9 | 51,3 | 0 | 0 | 83 | 0,6 | 984,2 |
| 2 | San Julian | 04-05-2026 00:15 | 13 | 51,6 | 0 | 0 | 102 | 0,6 | 984,4 |
| 1 | San Julian | 04-05-2026 00:00 | 10,1 | 56,7 | 0 | 0 | 108 | 0,6 | 984,7 |